This demonstration page uses our WeatherBlox Daily Observations layout. Learn more.

Left ArrowRight Arrow

41.55636, -103.73856

Hourly Observations for May 8, 2020

Temp ( °F °C ) Dew Point ( °F °C ) Humidity (%) Winds ( mph kmh ) Pressure ( in mb ) Visibility ( mi km ) Precip ( " mm )
12:58 am 00:58 Partly Cloudy 46 7.6 31 -0.4 57 57 N 22 35 30.16 1021 10 16 N/A
1:58 am 01:58 Mostly Cloudy 45 7.1 31 -0.7 58 58 N 29 46 30.20 1023 10 16 N/A
2:58 am 02:58 Mostly Clear 42 5.5 32 0.2 69 69 N 21 33 30.25 1024 10 16 N/A
3:58 am 03:58 Mostly Cloudy with Drizzle 41 5 35 1.7 79 79 NNE 25 41 30.29 1026 10 16 N/A
4:58 am 04:58 Mostly Cloudy 40 4.4 35 1.6 82 82 NNE 17 28 30.33 1027 10 16 N/A
5:58 am 05:58 Cloudy 38 3.3 35 1.4 88 88 NNE 20 31 30.37 1029 10 16 N/A
6:58 am 06:58 Cloudy 38 3.4 34 1.2 86 86 NE 10 17 30.39 1029 10 16 N/A
7:58 am 07:58 Mostly Cloudy 38 3.4 34 1.1 85 85 NNE 6 9 30.41 1030 10 16 N/A
8:58 am 08:58 Cloudy 37 3 33 0.7 85 85 N 10 17 30.40 1030 10 16 N/A
9:58 am 09:58 Mostly Cloudy 37 2.8 33 0.6 86 86 NNW 5 7 30.39 1029 10 16 N/A
10:58 am 10:58 Mostly Clear 34 0.9 31 -0.5 90 90 W 6 9 30.41 1030 10 16 N/A
11:58 am 11:58 Sunny 32 -0.2 31 -0.7 96 96 W 5 7 30.45 1031 10 16 N/A
12:58 pm 12:58 Sunny 33 0.6 32 0.2 97 97 N N/A 30.45 1031 10 16 N/A
1:58 pm 13:58 Mostly Cloudy 39 3.7 32 0.1 78 78 W 5 7 30.42 1030 10 16 N/A
2:58 pm 14:58 Mostly Sunny 41 4.9 31 -0.8 67 67 N N/A 30.43 1030 10 16 N/A
3:58 pm 15:58 Mostly Cloudy 45 7.2 32 -0.1 60 60 SSE 6 9 30.40 1030 10 16 N/A
4:58 pm 16:58 Mostly Cloudy 47 8.4 27 -3 45 45 SSE 7 11 30.38 1029 10 16 N/A
5:58 pm 17:58 Partly Cloudy 49 9.2 28 -2.1 45 45 SSE 8 13 30.35 1028 10 16 N/A
6:58 pm 18:58 Mostly Cloudy 51 10.5 30 -1 45 45 SSW 13 20 30.30 1026 10 16 N/A
7:58 pm 19:58 Mostly Sunny 54 12.1 31 -0.4 42 42 SSW 13 20 30.25 1024 10 16 N/A
8:58 pm 20:58 Mostly Sunny 56 13.3 28 -2.2 34 34 S 16 26 30.22 1023 10 16 N/A
9:58 pm 21:58 Mostly Sunny 55 12.9 29 -1.8 36 36 S 13 20 30.18 1022 10 16 N/A
10:58 pm 22:58 Sunny 56 13.1 29 -1.4 37 37 SSE 15 24 30.18 1022 10 16 N/A
11:58 pm 23:58 Sunny 55 12.8 28 -2.3 35 35 S 12 19 30.18 1022 10 16 N/A

Powered by AerisWeather